Location: Unspecified
(0.0000°N, 0.0000°E)
Time: 13:10:47
(UTC+00:00)

Vanguard 1 Rocket - Pass Details

Date: 12 February 2023
Orbit: 652 x 4223 km, 34.3° (Epoch: 30 March)

Event Time Altitude Azimuth Distance (km) Brightness Sun altitude
Rises 22:00:53 0° 263° (W) 8,469 12.9 -54.3°
Reaches altitude 10° 22:09:57 10° 249° (WSW) 7,305 12.3 -56.4°
Maximum altitude 22:25:53 21° 207° (SSW) 5,550 11.5 -60.0°
Drops below altitude 10° 22:37:45 10° 164° (SSE) 5,319 11.3 -62.5°
Enters shadow 22:42:13 - 149° (SSE) 5,660 11.5 -63.5°
